User: anonymous   Login
Location: Squamish
(49.7000°N, 123.1500°W)
Time: 08:54:13
(UTC-08:00)
Language:

NOAA 19 - Orbit

View from above orbital plane
View from above orbital plane
View from above satellite
View from above satellite

Ground track
Ground track

The orbit data is extracted from the following two-line orbital elements,

1 33591U 09005A   18018.86498892 +.00000090 +00000-0 +73926-4 0  9997
2 33591 099.1235 354.0788 0014532 029.6344 330.5648 14.12247054460830
Epoch (UTC): 18 January 2018 20:45:35
Eccentricity: 0.0014532
inclination: 99.1235°
perigee height: 841 km
apogee height: 862 km
right ascension of ascending node: 354.0788°
argument of perigee: 29.6344°
revolutions per day: 14.12247054
mean anomaly at epoch: 330.5648°
orbit number at epoch: 46083

The dashed part of the orbit path shows where the satellite is in the earth's shadow,  

DLR